Folgueroles (Osona)





Hora UTC 01:45
Temperatura 8.5 ºC
Humedad 87.0 %
Presión 1014.0 hPa
Pluja 0.0 mm
Velocidad viento 0.0 km/h
Dirección viento SSW

Datos diarios 2024-04-18



Hora UTC (invierno +1h; verano +2h)
Temperatura (ºC) Humedad (%) Presión (hPa) Velocidad viento (km/h) Precipitación (mm)
Hora UTC Aire Humedad Presión Vel. Dir. Vel. Max Dir. Intent. máx 5 min.
00:05 10.3 84.0 1014.6 0.0 SSW 0.0 0.0
00:10 10.2 84.0 1014.6 0.0 SSW 0.0 0.0
00:15 10.1 84.0 1014.6 0.0 SSW 0.0 0.0
00:20 9.8 83.0 1014.6 0.0 SSW 0.0 0.0
00:25 9.6 84.0 1014.5 0.0 SSW 0.0 0.0
00:30 9.4 84.0 1014.4 0.0 SSW 0.0 0.0
00:35 9.3 85.0 1014.4 0.0 SSW 0.0 0.0
00:40 9.2 85.0 1014.4 0.0 SSW 0.0 0.0
00:45 9.1 85.0 1014.3 0.0 SSW 0.0 0.0
00:50 8.9 85.0 1014.3 0.0 SSW 0.0 0.0
00:55 8.8 85.0 1014.3 0.0 SSW 0.0 0.0
01:00 8.7 85.0 1014.2 0.0 SSW 0.0 0.0
01:05 8.6 85.0 1014.2 0.0 SSW 0.0 0.0
01:10 8.6 86.0 1014.3 0.0 SSW 0.0 0.0
01:15 8.5 86.0 1014.2 0.0 SSW 0.0 0.0
01:20 8.5 86.0 1014.2 0.0 SSW 0.0 0.0
01:25 8.4 86.0 1014.1 0.0 SSW 0.0 0.0
01:30 8.4 86.0 1014.0 0.0 SSW 0.0 0.0
01:35 8.4 86.0 1014.2 0.0 SSW 0.0 0.0
01:40 8.5 86.0 1014.0 0.0 SSW 0.0 0.0
01:45 8.5 87.0 1014.0 0.0 SSW 0.0 0.0
Máxima 10.3 87.0 1014.6 0.0 SSW 0.0 0.0
Mínima 8.4 83.0 1014.0
Total 0.0